[[{"header":{"parameterUnit":"m.s-1","parameterCategory":1,"la1":30.2991,"la2":30.254,"lo1":-89.0895,"lo2":-89.0444,"dy":0.0017,"dx":0.0017,"nx":28,"ny":28,"refTime":"2024-10-07T03:00:00:Z","depth":0,"parameterNumber":2,"parameterNumberName":"U-component_of_WINDS"},"data":[0,0,0,0,0,0,0,0,0,0,0,0,0,0,0,0,0,0,0,0,0,0,0,0,0,0,0,0,0,0,0,0,0,0,0,0,0,0,0,0,0,0,0,0,0,0,0,0,0,0,0,0,0,0,0,0,0,0,-1.9635,-1.9635,0,-1.9611,-1.9611,-1.9611,-1.9544,-1.9542,-1.9541,-1.954,-1.9517,-1.9518,-1.9518,0,0,0,0,0,0,0,0,0,0,0,0,0,-1.9625,-1.9626,-1.9635,-1.9635,-1.9635,-1.9611,-1.9611,-1.9611,-1.9544,-1.9542,-1.9541,-1.9539,-1.9517,-1.9517,-1.9518,0,0,0,0,0,0,0,0,0,0,0,0,0,-1.9618,-1.9626,-1.9635,-1.9599,-1.9595,-1.9611,-1.9611,-1.9611,-1.9545,-1.9542,-1.954,-1.9538,-1.9516,-1.9517,-1.9519,-1.9569,0,0,-1.9522,-1.9522,0,0,0,0,0,0,0,0,-1.9619,-1.9619,-1.9604,-1.9601,-1.9597,-1.9578,-1.9599,-1.9597,-1.9545,-1.9564,-1.954,-1.9537,-1.9539,-1.9538,-1.9539,-1.9568,-1.9567,-1.9522,-1.9523,-1.9523,-1.9524,0,0,0,0,0,0,0,-1.9619,-1.9619,-1.9626,-1.9604,-1.96,-1.9584,-1.9581,-1.9598,-1.9564,-1.9562,-1.9557,-1.9555,-1.9537,-1.9538,-1.9538,-1.9567,-1.9522,-1.9523,-1.9524,-1.9524,-1.9636,-1.9638,0,0,0,0,0,0,-1.9625,-1.962,-1.9627,-1.9625,-1.9603,-1.9586,-1.9582,-1.9587,-1.9564,-1.9558,-1.9557,-1.9552,-1.9537,-1.9536,-1.9537,-1.9594,-1.9523,-1.9524,-1.9525,-1.9634,-1.9637,-1.9639,0,0,0,0,0,0,-1.9625,-1.9626,-1.9628,-1.9621,-1.962,-1.9588,-1.9594,-1.9587,-1.9588,-1.956,-1.9554,-1.9564,-1.9535,-1.9535,-1.9561,-1.9592,-1.9525,-1.9526,-1.9631,-1.9635,-1.9638,-1.971,0,0,0,0,0,0,-1.9625,-1.9626,-1.9645,-1.9622,-1.9621,-1.9652,-1.9596,-1.9588,-1.959,-1.9583,-1.9565,-1.956,-1.9533,-1.956,-1.9562,-1.9593,-1.9527,-1.9628,-1.9633,-1.9637,-1.9704,-1.9715,-1.9724,0,0,0,0,0,-1.9625,-1.9666,-1.9646,-1.9647,-1.9643,-1.9654,-1.9654,-1.9622,-1.9593,-1.9611,-1.9593,-1.956,-1.9589,-1.9563,-1.9565,-1.9596,-1.9626,-1.9632,-1.9637,-1.97,-1.9713,-1.9724,0,0,0,0,0,0,-1.9694,-1.9663,-1.964,-1.9675,-1.9668,-1.9643,-1.9665,-1.9637,-1.9638,-1.9632,-1.9593,-1.959,-1.9622,-1.9612,-1.9584,-1.9644,-1.9602,-1.9608,-1.9649,-1.9662,-1.9671,-1.9673,-1.9528,0,0,0,0,0,-1.9713,-1.9724,-1.9697,-1.9731,-1.9728,-1.9698,-1.9701,-1.9678,-1.9669,-1.9665,-1.9649,-1.9642,-1.9649,-1.9655,-1.966,-1.9703,-1.9698,-1.9725,-1.9735,-1.9744,-1.9749,-1.9771,-1.9783,-1.9656,-1.9656,-1.9656,0,0,-1.9754,-1.9738,-1.9747,-1.9744,-1.9736,-1.9749,-1.9695,-1.9711,-1.9721,-1.9668,-1.9691,-1.968,-1.9669,-1.9704,-1.9719,-1.9697,-1.9783,-1.975,-1.9757,-1.9758,-1.9778,-1.979,-1.98,-1.966,-1.9659,-1.9659,0,0,-1.9833,-1.9822,-1.9849,-1.9842,-1.9829,-1.9809,-1.9816,-1.9795,-1.9785,-1.9808,-1.9769,-1.978,-1.9793,-1.9787,-1.9786,-1.9864,-1.9834,-1.9867,-1.9919,-1.9941,-1.9951,-1.996,-1.9987,-1.9998,-1.9873,-1.9873,-1.9873,0,-1.9885,-1.9902,-1.9867,-1.9885,-1.9885,-1.9838,-1.9865,-1.986,-1.985,-1.9852,-1.9827,-1.9843,-1.9833,-1.9865,-1.9885,-1.9885,-1.9892,-1.9869,-1.9952,-1.9961,-1.9968,-1.9994,-2.0005,-1.9877,-1.9876,-1.9876,-1.9876,0,-1.9966,-1.9979,-2.0002,-1.9993,-1.9996,-2.0019,-1.9988,-1.9995,-1.9971,-1.9954,-1.9978,-1.9964,-1.9966,-1.9972,-1.9949,-2.0002,-1.9989,-1.9959,-1.9916,-1.9985,-2.0009,-2.0018,-1.9883,-1.9881,-1.988,-1.9879,0,0,-2.0088,-2.006,-2.0069,-2.0064,-2.0047,-2.0057,-2.0078,-2.0079,-2.0086,-2.0081,-2.0098,-2.011,-2.0083,-2.0082,-2.0058,-2.0077,-2.014,-2.0045,-2.0044,-2.0063,-2.0197,-2.022,-2.0232,-2.012,-2.0122,-2.0123,-2.0198,0,-2.0163,-2.0196,-2.0166,-2.0206,-2.0217,-2.0172,-2.0191,-2.0183,-2.0167,-2.0175,-2.0158,-2.0167,-2.013,-2.0129,-2.0146,-2.0129,-2.0167,-2.0123,-2.0136,-2.0137,-2.014,-2.0244,-2.0268,-2.0339,-2.0207,-2.0209,-2.021,0,-2.0255,-2.0253,-2.0294,-2.0275,-2.0278,-2.0295,-2.0294,-2.0302,-2.0292,-2.028,-2.0279,-2.025,-2.027,-2.0228,-2.0255,-2.0226,-2.023,-2.0222,-2.0224,-2.0224,-2.0177,-2.0247,-2.0361,-2.0372,-2.0224,-2.0223,-2.0222,0,-2.0339,-2.0348,-2.0374,-2.0371,-2.0349,-2.0362,-2.0354,-2.0342,-2.0345,-2.0344,-2.0345,-2.0347,-2.0348,-2.035,-2.0323,-2.0295,-2.0354,-2.031,-2.0344,-2.0345,-2.0358,-2.0358,-2.0474,-2.0361,-2.0361,-2.0361,-2.0361,0,-2.0426,-2.0453,-2.0411,-2.0427,-2.0456,-2.0421,-2.0451,-2.0438,-2.0428,-2.044,-2.0402,-2.0415,-2.0378,-2.0388,-2.0367,-2.0393,-2.0393,-2.0384,-2.0378,-2.0387,-2.0388,-2.0389,-2.0383,-2.0364,-2.0363,-2.0362,-2.0362,0,-2.0525,-2.0499,-2.0523,-2.0501,-2.0496,-2.0518,-2.0499,-2.0512,-2.0494,-2.0511,-2.0513,-2.0485,-2.0494,-2.0467,-2.0472,-2.0458,-2.0496,-2.0482,-2.0499,-2.0494,-2.053,-2.0527,-2.0651,-2.0666,-2.0544,-2.0545,-2.0546,0,-2.0582,-2.0602,-2.0581,-2.0586,-2.058,-2.059,-2.0592,-2.0559,-2.0563,-2.0554,-2.0569,-2.0575,-2.0578,-2.0594,-2.0575,-2.0579,-2.0564,-2.0608,-2.0565,-2.0574,-2.0565,-2.0564,-2.0566,-2.0616,-2.0618,-2.0619,-2.062,0,-2.0686,-2.0672,-2.0676,-2.0677,-2.0681,-2.0679,-2.0676,-2.0683,-2.0647,-2.0654,-2.0662,-2.0665,-2.067,-2.0676,-2.0676,-2.0668,-2.0639,-2.0634,-2.0642,-2.0651,-2.066,-2.0656,-2.0523,-2.0631,-2.063,-2.0629,-2.0629,-2.0628,-2.0765,-2.0781,-2.0768,-2.0775,-2.0769,-2.0766,-2.0778,-2.0761,-2.0768,-2.0769,-2.0749,-2.0762,-2.0752,-2.0749,-2.0744,-2.0754,-2.0734,-2.0746,-2.0749,-2.0752,-2.0758,-2.0659,-2.0753,-2.0753,-2.0753,-2.0752,-2.0752,0,-2.0867,-2.0857,-2.0863,-2.0859,-2.0864,-2.0836,-2.083,-2.0837,-2.0848,-2.0842,-2.0845,-2.0856,-2.0862,-2.0843,-2.0847,-2.0858,-2.0845,-2.086,-2.0859,-2.0858,-2.0775,-2.0768,-2.0871,-2.0871,-2.0871,-2.0871,-2.0871,-2.0871,-2.092,-2.0944,-2.0929,-2.095,-2.094,-2.0951,-2.0951,-2.0949,-2.0943,-2.0956,-2.0961,-2.0948,-2.0937,-2.0939,-2.0944,-2.0938,-2.0942,-2.0962,-2.0952,-2.0875,-2.0863,-2.0852,-2.0845,-2.0963,-2.0963,-2.1033,-2.1033,-2.1034]},{"header":{"parameterUnit":"m.s-1","parameterCategory":1,"la1":30.2991,"la2":30.254,"lo1":-89.0895,"lo2":-89.0444,"dy":0.0017,"dx":0.0017,"nx":28,"ny":28,"refTime":"2024-10-07T03:00:00:Z","depth":0,"parameterNumber":3,"parameterNumberName":"V-component_of_WINDS"},"data":[0,0,0,0,0,0,0,0,0,0,0,0,0,0,0,0,0,0,0,0,0,0,0,0,0,0,0,0,0,0,0,0,0,0,0,0,0,0,0,0,0,0,0,0,0,0,0,0,0,0,0,0,0,0,0,0,0,0,-2.6149,-2.6149,0,-2.6134,-2.6134,-2.6134,-2.6092,-2.6092,-2.6091,-2.609,-2.6076,-2.6077,-2.6077,0,0,0,0,0,0,0,0,0,0,0,0,0,-2.6141,-2.6142,-2.6149,-2.6149,-2.6149,-2.6135,-2.6134,-2.6134,-2.6093,-2.6091,-2.609,-2.6089,-2.6076,-2.6076,-2.6077,0,0,0,0,0,0,0,0,0,0,0,0,0,-2.6138,-2.6142,-2.6149,-2.6126,-2.6124,-2.6135,-2.6134,-2.6134,-2.6093,-2.6091,-2.609,-2.6089,-2.6076,-2.6076,-2.6077,-2.6109,0,0,-2.6079,-2.608,0,0,0,0,0,0,0,0,-2.6138,-2.6138,-2.613,-2.6128,-2.6125,-2.6114,-2.6127,-2.6126,-2.6093,-2.6105,-2.609,-2.6088,-2.609,-2.6089,-2.609,-2.6108,-2.6108,-2.6079,-2.608,-2.608,-2.608,0,0,0,0,0,0,0,-2.6138,-2.6138,-2.6143,-2.613,-2.6127,-2.6117,-2.6115,-2.6126,-2.6105,-2.6104,-2.61,-2.6099,-2.6088,-2.6089,-2.6089,-2.6108,-2.6079,-2.608,-2.6081,-2.6081,-2.6152,-2.6154,0,0,0,0,0,0,-2.6142,-2.6139,-2.6144,-2.6143,-2.6128,-2.6118,-2.6116,-2.6119,-2.6105,-2.6101,-2.61,-2.6097,-2.6088,-2.6088,-2.6088,-2.6125,-2.608,-2.6081,-2.6081,-2.6151,-2.6153,-2.6154,0,0,0,0,0,0,-2.6142,-2.6143,-2.6144,-2.614,-2.6139,-2.612,-2.6123,-2.6119,-2.612,-2.6103,-2.6099,-2.6105,-2.6087,-2.6087,-2.6104,-2.6124,-2.6081,-2.6082,-2.6149,-2.6152,-2.6154,-2.6198,0,0,0,0,0,0,-2.6142,-2.6143,-2.6154,-2.6141,-2.614,-2.616,-2.6125,-2.612,-2.6121,-2.6117,-2.6106,-2.6103,-2.6086,-2.6103,-2.6105,-2.6124,-2.6082,-2.6147,-2.615,-2.6153,-2.6195,-2.6202,-2.6207,0,0,0,0,0,-2.6142,-2.6168,-2.6155,-2.6156,-2.6154,-2.6161,-2.6161,-2.6141,-2.6123,-2.6135,-2.6124,-2.6103,-2.6122,-2.6105,-2.6107,-2.6127,-2.6146,-2.615,-2.6153,-2.6192,-2.62,-2.6207,0,0,0,0,0,0,-2.6184,-2.6165,-2.6151,-2.6174,-2.6169,-2.6154,-2.6168,-2.6151,-2.6152,-2.6148,-2.6124,-2.6122,-2.6142,-2.6136,-2.6118,-2.6157,-2.6131,-2.6134,-2.616,-2.6168,-2.6174,-2.6175,-2.6083,0,0,0,0,0,-2.6196,-2.6203,-2.6187,-2.6208,-2.6207,-2.6188,-2.619,-2.6176,-2.6171,-2.6169,-2.6159,-2.6155,-2.616,-2.6163,-2.6167,-2.6194,-2.6191,-2.6208,-2.6215,-2.622,-2.6223,-2.6238,-2.6245,-2.6165,-2.6165,-2.6165,0,0,-2.6221,-2.6212,-2.6218,-2.6216,-2.6211,-2.622,-2.6187,-2.6197,-2.6203,-2.617,-2.6185,-2.6178,-2.6172,-2.6195,-2.6204,-2.619,-2.6245,-2.6224,-2.6228,-2.6229,-2.6242,-2.6249,-2.6256,-2.6167,-2.6167,-2.6167,0,0,-2.627,-2.6264,-2.6281,-2.6277,-2.627,-2.6257,-2.6262,-2.6249,-2.6243,-2.6258,-2.6234,-2.6241,-2.625,-2.6247,-2.6246,-2.6296,-2.6277,-2.6298,-2.633,-2.6344,-2.6351,-2.6356,-2.6374,-2.638,-2.6301,-2.6301,-2.6301,0,-2.6302,-2.6313,-2.6292,-2.6304,-2.6304,-2.6275,-2.6293,-2.629,-2.6284,-2.6285,-2.627,-2.6281,-2.6275,-2.6296,-2.6308,-2.6309,-2.6313,-2.6298,-2.6352,-2.6357,-2.6362,-2.6378,-2.6385,-2.6304,-2.6304,-2.6303,-2.6303,0,-2.6353,-2.6361,-2.6376,-2.6371,-2.6373,-2.6388,-2.6369,-2.6374,-2.636,-2.6349,-2.6365,-2.6357,-2.6359,-2.6363,-2.6349,-2.6382,-2.6374,-2.6356,-2.6328,-2.6372,-2.6387,-2.6393,-2.6308,-2.6307,-2.6306,-2.6305,0,0,-2.6428,-2.6412,-2.6417,-2.6415,-2.6405,-2.6412,-2.6425,-2.6427,-2.6431,-2.6429,-2.644,-2.6449,-2.6432,-2.6431,-2.6417,-2.643,-2.6469,-2.641,-2.6409,-2.6421,-2.6506,-2.652,-2.6527,-2.6457,-2.6458,-2.6459,-2.6507,0,-2.6474,-2.6496,-2.6478,-2.6503,-2.6511,-2.6484,-2.6496,-2.6492,-2.6482,-2.6488,-2.6478,-2.6484,-2.6461,-2.6461,-2.6472,-2.6462,-2.6486,-2.6459,-2.6468,-2.6468,-2.6469,-2.6535,-2.655,-2.6595,-2.6512,-2.6513,-2.6514,0,-2.6531,-2.6531,-2.6557,-2.6546,-2.6549,-2.656,-2.656,-2.6566,-2.6561,-2.6553,-2.6553,-2.6536,-2.6549,-2.6523,-2.6541,-2.6523,-2.6526,-2.6521,-2.6523,-2.6522,-2.6493,-2.6537,-2.6608,-2.6615,-2.6523,-2.6522,-2.6522,0,-2.6582,-2.6589,-2.6606,-2.6605,-2.6593,-2.6601,-2.6597,-2.659,-2.6592,-2.6593,-2.6594,-2.6596,-2.6598,-2.66,-2.6584,-2.6566,-2.6604,-2.6577,-2.6599,-2.6599,-2.6607,-2.6607,-2.668,-2.661,-2.661,-2.661,-2.661,0,-2.6636,-2.6653,-2.6629,-2.6639,-2.6658,-2.6637,-2.6656,-2.6649,-2.6644,-2.6652,-2.663,-2.6638,-2.6617,-2.6623,-2.6611,-2.6628,-2.6629,-2.6624,-2.662,-2.6625,-2.6626,-2.6626,-2.6623,-2.6611,-2.6611,-2.6611,-2.661,0,-2.6696,-2.6681,-2.6697,-2.6685,-2.6682,-2.6696,-2.6686,-2.6695,-2.6685,-2.6696,-2.6697,-2.6681,-2.6688,-2.6673,-2.6677,-2.6669,-2.6693,-2.6685,-2.6695,-2.6692,-2.6715,-2.6713,-2.6791,-2.68,-2.6724,-2.6725,-2.6726,0,-2.6731,-2.6743,-2.6732,-2.6736,-2.6733,-2.674,-2.6742,-2.6723,-2.6726,-2.6722,-2.6732,-2.6737,-2.674,-2.6752,-2.6741,-2.6745,-2.6736,-2.6764,-2.6737,-2.6742,-2.6737,-2.6736,-2.6737,-2.6769,-2.677,-2.6771,-2.6771,0,-2.6794,-2.6786,-2.679,-2.6792,-2.6795,-2.6795,-2.6794,-2.6799,-2.6778,-2.6784,-2.679,-2.6792,-2.6797,-2.6803,-2.6804,-2.68,-2.6783,-2.678,-2.6785,-2.679,-2.6796,-2.6793,-2.671,-2.6778,-2.6777,-2.6777,-2.6776,-2.6776,-2.6842,-2.6852,-2.6846,-2.6852,-2.6849,-2.6849,-2.6857,-2.6848,-2.6853,-2.6855,-2.6844,-2.6853,-2.6849,-2.6849,-2.6846,-2.6854,-2.6842,-2.6849,-2.6851,-2.6853,-2.6857,-2.6795,-2.6854,-2.6854,-2.6854,-2.6854,-2.6853,0,-2.6904,-2.6899,-2.6904,-2.6903,-2.6908,-2.6891,-2.6889,-2.6894,-2.6903,-2.69,-2.6903,-2.6912,-2.6917,-2.6907,-2.6911,-2.6919,-2.6911,-2.6921,-2.692,-2.6919,-2.6868,-2.6863,-2.6927,-2.6927,-2.6927,-2.6927,-2.6927,-2.6927,-2.6937,-2.6953,-2.6944,-2.6959,-2.6954,-2.6963,-2.6964,-2.6963,-2.6961,-2.6971,-2.6975,-2.6969,-2.6963,-2.6967,-2.6972,-2.6968,-2.6971,-2.6983,-2.6978,-2.693,-2.6923,-2.6916,-2.6911,-2.6984,-2.6984,-2.7028,-2.7029,-2.7029]}]]